Regional Weather Roundup
Issued by NWS

Home | Current Version | Previous Version | Text Only | Print | Product List | Glossary On
Versions: 1 2 3 4 5 6 7 8 9 10 11 12 13 14 15 16 17 18 19 20 21 22 23 24 25 26 27 28 29 30 31 32 33 34 35 36 37 38 39 40 41 42 43 44 45 46 47 48 49 50
000
ASUS43 KBIS 071810
RWRND

NORTH DAKOTA REGIONAL WEATHER ROUNDUP
NATIONAL WEATHER SERVICE BISMARCK ND
1200 PM CST WED DEC 07 2016

NOTE: "FAIR" INDICATES FEW OR NO CLOUDS BELOW 12,000 FEET WITH NO
SIGNIFICANT WEATHER AND/OR OBSTRUCTIONS TO VISIBILITY.


NDZ001>003-009>011-017-071900-
NORTHWEST NORTH DAKOTA

CITY           SKY/WX    TMP DP  RH WIND       PRES   REMARKS
WILLISTON      CLOUDY     0  -9  65 NW15      30.42S WCI -19
6HR MIN TEMP:  -2; 6HR MAX TEMP:   0;

MINOT          SNOW       5   0  79 W35G47    30.21R VSB 1/2 WCI -20
MINOT AFB      HVY SNOW   3   0  85 NW31G45   30.20R VSB 1/4 WCI -22
$$

NDZ018>021-031>035-040>046-071900-
SOUTHWEST NORTH DAKOTA

CITY           SKY/WX    TMP DP  RH WIND       PRES   REMARKS
BISMARCK       CLOUDY     5  -1  76 NW23G32   30.28R WCI -17
6HR MIN TEMP:   4; 6HR MAX TEMP:   6; 6HR PCP:  0.02;

DICKINSON      MIX PCPN  -1  -8  72 NW32G40   30.28R VSB 1   WCI -28
GARRISON         N/A      2  -3  80 NW39G48   30.22S WCI -26
6HR MIN TEMP:   0; 6HR MAX TEMP:   4;

HETTINGER ARPT PTSUNNY    3  -4  72 NW30      30.31S WCI -22
$$

NDZ004>008-012>016-024-026-027-054-071900-
NORTHEAST NORTH DAKOTA

CITY           SKY/WX    TMP DP  RH WIND       PRES   REMARKS
GRAND FORKS    CLOUDY    17  12  80 NW24G33   29.96S BLWGSNOWWCI  -1
GRND FRKS AFB  LGT SNOW  16  10  79 NW23G31   29.97S WCI  -2
DEVILS LAKE    SNOW      10   7  87 NW31G38   30.02F VSB 1/2 WCI -13
$$

NDZ022-023-025-028>030-036>039-047>053-071900-
SOUTHEAST NORTH DAKOTA

CITY           SKY/WX    TMP DP  RH WIND       PRES   REMARKS
FARGO          CLOUDY    15   7  70 W28       30.04R WCI  -5
6HR MIN TEMP:  13; 6HR MAX TEMP:  15; 6HR PCP: TRACE;

JAMESTOWN      LGT SNOW   9   5  84 NW25G44   30.09S VSB 3/4 WCI -12
$$




USA.gov is the U.S. government's official web portal to all federal, state and local government web resources and services.